This is the latest recevied weather packets stored in our database for station/object F4GQK-13. If no packets are shown the sender has not sent any weather packets the latest 10 day(s).
| Time | Temp. | Humidity | Pressure | Rain* | Wind** | Luminosity | Snow |
|---|---|---|---|---|---|---|---|
| 1777731005 | 27.22° C | 38% | 1016 hPa | 0 mm | - | 637 W/m² | - |
| 1777730705 | 27.22° C | 35% | 1016.2 hPa | 0 mm | - | 653 W/m² | - |
| 1777730405 | 26.67° C | 37% | 1016.2 hPa | 0 mm | - | 661 W/m² | - |
| 1777730105 | 26.67° C | 37% | 1016.3 hPa | 0 mm | - | 637 W/m² | - |
| 1777729805 | 26.67° C | 40% | 1016.5 hPa | 0 mm | - | 669 W/m² | - |
| 1777729504 | 26.11° C | 40% | 1016.5 hPa | 0 mm | - | 666 W/m² | - |
| 1777729204 | 25.56° C | 44% | 1016.4 hPa | 0 mm | - | 691 W/m² | - |
| 1777728905 | 25.56° C | 46% | 1016.5 hPa | 0 mm | - | 362 W/m² | - |
| 1777728605 | 26.11° C | 47% | 1016.6 hPa | 0 mm | - | 289 W/m² | - |
| 1777728305 | 26.11° C | 48% | 1016.7 hPa | 0 mm | - | 645 W/m² | - |
| 1777728004 | 26.67° C | 48% | 1016.8 hPa | 0 mm | - | 462 W/m² | - |
| 1777727704 | 26.67° C | 47% | 1016.7 hPa | 0 mm | - | 771 W/m² | - |
| 1777727405 | 25.56° C | 49% | 1016.8 hPa | 0 mm | - | 728 W/m² | - |
| 1777727105 | 25° C | 50% | 1016.9 hPa | 0 mm | - | 759 W/m² | - |
| 1777726810 | 25.56° C | 50% | 1017.1 hPa | 0 mm | - | 206 W/m² | - |
| 1777726505 | 26.11° C | 49% | 1016.9 hPa | 0 mm | - | 522 W/m² | - |
| 1777726205 | 26.11° C | 51% | 1017 hPa | 0 mm | - | 776 W/m² | - |
| 1777725905 | 25.56° C | 53% | 1017.1 hPa | 0 mm | - | 791 W/m² | - |
| 1777725605 | 26.11° C | 53% | 1017.2 hPa | 0 mm | - | 793 W/m² | - |
| 1777725306 | 25.56° C | 53% | 1017.4 hPa | 0 mm | - | 809 W/m² | - |
| 1777725005 | 25.56° C | 53% | 1017.3 hPa | 0 mm | - | 770 W/m² | - |
| 1777724705 | 25.56° C | 54% | 1017.4 hPa | 0 mm | - | 772 W/m² | - |
| 1777724405 | 25.56° C | 54% | 1017.6 hPa | 0 mm | - | 760 W/m² | - |
| 1777724105 | 26.11° C | 54% | 1017.5 hPa | 0 mm | - | 743 W/m² | - |
| 1777723803 | 26.11° C | 55% | 1017.5 hPa | 0 mm | - | 762 W/m² | - |
* Rain latest hour (hover to see other rain measurements)
** Current wind speed in m/s (hover to see current wind gust speed)